IBB66UR GCXO-LEMD

Flight info

Callsign IBB66UR
Flight time 2h 13m
Altitude 36000
Route VASTO UN858 AKUDA DCT PESAS DCT PARKA Z165 SOTUK
Aircraft CRJX/M-SDFGIRWY/S

Departure

Time 2026-04-17 11:21
Airport Tenerife Norte-Ciudad de La Laguna Airport (GCXO)

Arrival

Time 2026-04-17 13:35
Airport Adolfo Suárez Madrid–Barajas Airport (LEMD)
Time Latitude Longitude Altitude Speed Heading
2026-04-17 10:53 28.48569 -16.34424 2065 ft 0 kts 21°
2026-04-17 11:11 28.48563 -16.34427 2065 ft 4 kts 21°
2026-04-17 11:11 28.48538 -16.34438 2065 ft 4 kts 21°
2026-04-17 11:12 28.48514 -16.34449 2065 ft 3 kts 21°
2026-04-17 11:12 28.48491 -16.34454 2064 ft 4 kts 345°
2026-04-17 11:12 28.48476 -16.34437 2064 ft 4 kts 293°
2026-04-17 11:12 28.48469 -16.34418 2063 ft 1 kts 292°
2026-04-17 11:13 28.48469 -16.34416 2063 ft 0 kts 292°
2026-04-17 11:17 28.48476 -16.34436 2064 ft 5 kts 292°
2026-04-17 11:17 28.48494 -16.34491 2065 ft 9 kts 290°
2026-04-17 11:17 28.48522 -16.34576 2066 ft 13 kts 290°
2026-04-17 11:17 28.48560 -16.34690 2067 ft 17 kts 291°
2026-04-17 11:18 28.48608 -16.34833 2069 ft 21 kts 291°
2026-04-17 11:18 28.48661 -16.34995 2069 ft 22 kts 290°
2026-04-17 11:18 28.48715 -16.35155 2069 ft 21 kts 291°
2026-04-17 11:18 28.48767 -16.35311 2069 ft 21 kts 290°
2026-04-17 11:19 28.48818 -16.35463 2069 ft 21 kts 291°
2026-04-17 11:19 28.48869 -16.35616 2067 ft 20 kts 291°
2026-04-17 11:19 28.48873 -16.35692 2066 ft 0 kts 250°
2026-04-17 11:20 28.48867 -16.35703 2066 ft 5 kts 237°
2026-04-17 11:20 28.48830 -16.35758 2066 ft 11 kts 220°
2026-04-17 11:20 28.48810 -16.35757 2066 ft 5 kts 140°
2026-04-17 11:20 28.48791 -16.35722 2066 ft 0 kts 109°
2026-04-17 11:21 28.48766 -16.35644 2067 ft 39 kts 111°
2026-04-17 11:21 28.48576 -16.35078 2069 ft 112 kts 111°
2026-04-17 11:21 28.48231 -16.34050 2120 ft 158 kts 111°
2026-04-17 11:21 28.47835 -16.32931 2874 ft 150 kts 114°
2026-04-17 11:22 28.47348 -16.31863 3480 ft 156 kts 118°
2026-04-17 11:22 28.46819 -16.30790 4223 ft 154 kts 119°
2026-04-17 11:22 28.46306 -16.29722 4849 ft 155 kts 121°
2026-04-17 11:22 28.45733 -16.28572 5095 ft 185 kts 121°
2026-04-17 11:23 28.45049 -16.27228 5611 ft 205 kts 122°
2026-04-17 11:23 28.44314 -16.25767 6280 ft 219 kts 121°
2026-04-17 11:23 28.43581 -16.24241 7109 ft 223 kts 121°
2026-04-17 11:23 28.42839 -16.22710 7911 ft 226 kts 122°
2026-04-17 11:24 28.42073 -16.21129 8686 ft 230 kts 122°
2026-04-17 11:24 28.41297 -16.19521 9443 ft 234 kts 122°
2026-04-17 11:24 28.40690 -16.17768 10113 ft 245 kts 105°
2026-04-17 11:24 28.40514 -16.15796 10569 ft 267 kts 88°
2026-04-17 11:25 28.41232 -16.13710 10667 ft 304 kts 56°
2026-04-17 11:25 28.42629 -16.11770 11018 ft 326 kts 50°
2026-04-17 11:25 28.44198 -16.09814 11429 ft 344 kts 47°
2026-04-17 11:25 28.45902 -16.07824 11860 ft 359 kts 45°
2026-04-17 11:26 28.47710 -16.05807 12400 ft 368 kts 44°
2026-04-17 11:26 28.49568 -16.03792 13138 ft 372 kts 44°
2026-04-17 11:26 28.51432 -16.01740 13879 ft 373 kts 45°
2026-04-17 11:26 28.53255 -15.99616 14610 ft 376 kts 47°
2026-04-17 11:27 28.55045 -15.97450 15343 ft 377 kts 47°
2026-04-17 11:27 28.56863 -15.95275 16026 ft 380 kts 46°
2026-04-17 11:27 28.58699 -15.93098 16664 ft 382 kts 46°
2026-04-17 11:27 28.60537 -15.90911 17281 ft 385 kts 46°
2026-04-17 11:28 28.62365 -15.88731 17874 ft 387 kts 46°
2026-04-17 11:28 28.64228 -15.86514 18477 ft 389 kts 46°
2026-04-17 11:28 28.66110 -15.84269 18969 ft 393 kts 46°
2026-04-17 11:28 28.68001 -15.82009 19430 ft 398 kts 46°
2026-04-17 11:29 28.69921 -15.79717 19910 ft 401 kts 46°
2026-04-17 11:29 28.71859 -15.77406 20358 ft 406 kts 46°
2026-04-17 11:29 28.73805 -15.75075 20783 ft 409 kts 46°
2026-04-17 11:29 28.75782 -15.72714 21224 ft 413 kts 46°
2026-04-17 11:30 28.77779 -15.70327 21624 ft 417 kts 46°
2026-04-17 11:30 28.79771 -15.67936 22029 ft 419 kts 46°
2026-04-17 11:30 28.81790 -15.65521 22402 ft 423 kts 46°
2026-04-17 11:30 28.83045 -15.64014 22627 ft 425 kts 46°
2026-04-17 11:31 28.85175 -15.61462 23005 ft 428 kts 46°
2026-04-17 11:31 28.87221 -15.59001 23347 ft 431 kts 46°
2026-04-17 11:31 28.89954 -15.55723 23817 ft 435 kts 45°
2026-04-17 11:31 28.91359 -15.54031 24031 ft 437 kts 46°
2026-04-17 11:32 28.93460 -15.51502 24364 ft 439 kts 45°
2026-04-17 11:32 28.95572 -15.48964 24691 ft 442 kts 45°
2026-04-17 11:32 28.97694 -15.46410 25009 ft 445 kts 45°
2026-04-17 11:32 28.99826 -15.43838 25322 ft 447 kts 45°
2026-04-17 11:33 29.01972 -15.41252 25611 ft 449 kts 45°
2026-04-17 11:33 29.04122 -15.38660 25899 ft 451 kts 45°
2026-04-17 11:33 29.06291 -15.36043 26164 ft 454 kts 45°
2026-04-17 11:33 29.08466 -15.33419 26444 ft 455 kts 45°
2026-04-17 11:34 29.10647 -15.30776 26672 ft 458 kts 45°
2026-04-17 11:34 29.12833 -15.28132 26922 ft 460 kts 45°
2026-04-17 11:34 29.15037 -15.25470 27167 ft 462 kts 45°
2026-04-17 11:34 29.17248 -15.22788 27397 ft 464 kts 45°
2026-04-17 11:35 29.19477 -15.20088 27627 ft 466 kts 45°
2026-04-17 11:35 29.21671 -15.17427 27855 ft 468 kts 45°
2026-04-17 11:35 29.23936 -15.14675 28079 ft 469 kts 45°
2026-04-17 11:35 29.26182 -15.11954 28299 ft 471 kts 45°
2026-04-17 11:36 29.28405 -15.09248 28481 ft 473 kts 45°
2026-04-17 11:36 29.30665 -15.06504 28680 ft 474 kts 45°
2026-04-17 11:36 29.32921 -15.03751 28876 ft 476 kts 45°
2026-04-17 11:36 29.35192 -15.00983 29044 ft 477 kts 45°
2026-04-17 11:37 29.37473 -14.98210 29244 ft 479 kts 45°
2026-04-17 11:37 29.39761 -14.95420 29415 ft 480 kts 45°
2026-04-17 11:37 29.42057 -14.92620 29561 ft 482 kts 45°
2026-04-17 11:37 29.44347 -14.89819 29737 ft 483 kts 45°
2026-04-17 11:38 29.46650 -14.87005 29885 ft 485 kts 45°
2026-04-17 11:38 29.48966 -14.84177 30040 ft 486 kts 45°
2026-04-17 11:38 29.51275 -14.81347 30207 ft 486 kts 45°
2026-04-17 11:38 29.53595 -14.78502 30368 ft 487 kts 45°
2026-04-17 11:39 29.55917 -14.75657 30494 ft 489 kts 45°
2026-04-17 11:39 29.58239 -14.72810 30634 ft 490 kts 45°
2026-04-17 11:39 29.60569 -14.69945 30780 ft 491 kts 45°
2026-04-17 11:39 29.62875 -14.67118 30912 ft 491 kts 45°
2026-04-17 11:40 29.67558 -14.61357 31134 ft 494 kts 45°
2026-04-17 11:40 29.69842 -14.58550 31257 ft 495 kts 45°
2026-04-17 11:40 29.72259 -14.55568 31377 ft 495 kts 45°
2026-04-17 11:41 29.74613 -14.52665 31493 ft 496 kts 45°
2026-04-17 11:41 29.76972 -14.49759 31609 ft 497 kts 45°
2026-04-17 11:41 29.79327 -14.46845 31756 ft 497 kts 45°
2026-04-17 11:41 29.81676 -14.43944 31897 ft 497 kts 45°
2026-04-17 11:42 29.84024 -14.41043 32078 ft 495 kts 45°
2026-04-17 11:42 29.86377 -14.38130 32221 ft 496 kts 45°
2026-04-17 11:42 29.88718 -14.35233 32377 ft 495 kts 45°
2026-04-17 11:42 29.91061 -14.32330 32528 ft 495 kts 45°
2026-04-17 11:43 29.93401 -14.29429 32689 ft 494 kts 45°
2026-04-17 11:43 29.95735 -14.26530 32830 ft 493 kts 45°
2026-04-17 11:43 29.98069 -14.23635 32968 ft 493 kts 45°
2026-04-17 11:43 30.00398 -14.20735 33115 ft 492 kts 45°
2026-04-17 11:44 30.02735 -14.17822 33224 ft 492 kts 45°
2026-04-17 11:44 30.05063 -14.14933 33351 ft 492 kts 45°
2026-04-17 11:44 30.09712 -14.09133 33602 ft 491 kts 45°
2026-04-17 11:45 30.11998 -14.06252 33710 ft 491 kts 45°
2026-04-17 11:45 30.14313 -14.03297 33760 ft 493 kts 45°
2026-04-17 11:45 30.16630 -14.00375 33926 ft 491 kts 45°
2026-04-17 11:45 30.18912 -13.97513 34056 ft 490 kts 45°
2026-04-17 11:46 30.23534 -13.91728 34265 ft 490 kts 45°
2026-04-17 11:46 30.25851 -13.88828 34382 ft 490 kts 45°
2026-04-17 11:46 30.28168 -13.85915 34477 ft 490 kts 45°
2026-04-17 11:47 30.30466 -13.83036 34599 ft 489 kts 45°
2026-04-17 11:47 30.32793 -13.80112 34660 ft 490 kts 45°
2026-04-17 11:47 30.37406 -13.74310 34847 ft 490 kts 45°
2026-04-17 11:48 30.42018 -13.68503 35034 ft 489 kts 45°
2026-04-17 11:48 30.46602 -13.62720 35215 ft 489 kts 44°
2026-04-17 11:49 30.48924 -13.59789 35325 ft 488 kts 45°
2026-04-17 11:49 30.51252 -13.56954 35362 ft 486 kts 39°
2026-04-17 11:49 30.56711 -13.52538 35524 ft 480 kts 27°
2026-04-17 11:50 30.62360 -13.48345 35670 ft 482 kts 31°
2026-04-17 11:50 30.67851 -13.43884 35811 ft 482 kts 31°
2026-04-17 11:51 30.70587 -13.41654 35947 ft 480 kts 31°
2026-04-17 11:51 30.73301 -13.39446 36007 ft 480 kts 31°
2026-04-17 11:51 30.78825 -13.35021 36053 ft 483 kts 31°
2026-04-17 11:52 30.84345 -13.30605 36055 ft 485 kts 31°
2026-04-17 11:52 30.89949 -13.26112 36059 ft 488 kts 31°
2026-04-17 11:53 30.95532 -13.21678 36050 ft 489 kts 30°
2026-04-17 11:53 31.01195 -13.17259 36065 ft 490 kts 30°
2026-04-17 11:54 31.06790 -13.12826 36058 ft 492 kts 30°
2026-04-17 11:54 31.12420 -13.08344 36066 ft 493 kts 31°
2026-04-17 11:55 31.18088 -13.03818 36058 ft 494 kts 30°
2026-04-17 11:55 31.23762 -12.99279 36062 ft 494 kts 30°
2026-04-17 11:56 31.29443 -12.94729 36062 ft 495 kts 31°
2026-04-17 11:56 31.35065 -12.90230 36066 ft 495 kts 31°
2026-04-17 11:57 31.40707 -12.85697 36068 ft 495 kts 30°
2026-04-17 11:57 31.46332 -12.81171 36059 ft 496 kts 30°
2026-04-17 11:58 31.52065 -12.76553 36057 ft 496 kts 31°
2026-04-17 11:58 31.57705 -12.72012 36065 ft 496 kts 30°
2026-04-17 11:59 31.63334 -12.67458 36075 ft 495 kts 30°
2026-04-17 11:59 31.68993 -12.62879 36080 ft 495 kts 31°
2026-04-17 12:00 31.74703 -12.58265 36075 ft 495 kts 31°
2026-04-17 12:00 31.80322 -12.53699 36073 ft 495 kts 30°
2026-04-17 12:01 31.86049 -12.49039 36072 ft 495 kts 31°
2026-04-17 12:01 31.91646 -12.44508 36072 ft 495 kts 30°
2026-04-17 12:02 31.97276 -12.39915 36072 ft 495 kts 31°
2026-04-17 12:02 32.02945 -12.35295 36072 ft 495 kts 30°
2026-04-17 12:03 32.08635 -12.30654 36072 ft 495 kts 31°
2026-04-17 12:03 32.14300 -12.26043 36072 ft 495 kts 31°
2026-04-17 12:04 32.19956 -12.21423 36073 ft 494 kts 31°
2026-04-17 12:04 32.25580 -12.16816 36072 ft 494 kts 31°
2026-04-17 12:05 32.31209 -12.12204 36072 ft 495 kts 31°
2026-04-17 12:05 32.36864 -12.07572 36072 ft 495 kts 31°
2026-04-17 12:06 32.42503 -12.02932 36072 ft 494 kts 31°
2026-04-17 12:06 32.48135 -11.98290 36072 ft 492 kts 31°
2026-04-17 12:07 32.53596 -11.93789 36069 ft 485 kts 31°
2026-04-17 12:07 32.58975 -11.89352 36066 ft 480 kts 31°
2026-04-17 12:08 32.64249 -11.84991 36067 ft 476 kts 31°
2026-04-17 12:08 32.69660 -11.80515 36068 ft 472 kts 31°
2026-04-17 12:09 32.75028 -11.76065 36069 ft 468 kts 31°
2026-04-17 12:09 32.80351 -11.71646 36070 ft 465 kts 31°
2026-04-17 12:10 32.85598 -11.67275 36070 ft 462 kts 31°
2026-04-17 12:10 32.90853 -11.62902 36065 ft 460 kts 31°
2026-04-17 12:11 32.96077 -11.58543 36066 ft 457 kts 31°
2026-04-17 12:12 33.03866 -11.52033 36061 ft 454 kts 31°
2026-04-17 12:12 33.09025 -11.47714 36064 ft 452 kts 31°
2026-04-17 12:13 33.14171 -11.43409 36067 ft 450 kts 31°
2026-04-17 12:13 33.19287 -11.39115 36060 ft 449 kts 31°
2026-04-17 12:14 33.24367 -11.34781 36061 ft 448 kts 31°
2026-04-17 12:14 33.29419 -11.30502 36049 ft 447 kts 31°
2026-04-17 12:15 33.34515 -11.26175 36061 ft 445 kts 31°
2026-04-17 12:15 33.39539 -11.21900 36051 ft 450 kts 31°
2026-04-17 12:16 33.44713 -11.17491 36064 ft 457 kts 31°
2026-04-17 12:16 33.49900 -11.13063 36068 ft 463 kts 32°
2026-04-17 12:17 33.55185 -11.08544 36057 ft 470 kts 32°
2026-04-17 12:17 33.60506 -11.03988 36056 ft 471 kts 32°
2026-04-17 12:18 33.65858 -10.99398 36047 ft 475 kts 32°
2026-04-17 12:18 33.71278 -10.94741 36054 ft 480 kts 32°
2026-04-17 12:19 33.75760 -10.90868 36047 ft 475 kts 32°
2026-04-17 12:19 33.81988 -10.85454 36037 ft 474 kts 32°
2026-04-17 12:20 33.87350 -10.80839 36045 ft 474 kts 32°
2026-04-17 12:20 33.91855 -10.76958 36045 ft 474 kts 32°
2026-04-17 12:21 33.97188 -10.72335 36045 ft 474 kts 32°
2026-04-17 12:21 34.02547 -10.67692 36042 ft 474 kts 32°
2026-04-17 12:22 34.07872 -10.63074 36048 ft 475 kts 32°
2026-04-17 12:22 34.13232 -10.58408 36045 ft 475 kts 33°
2026-04-17 12:23 34.18582 -10.53747 36062 ft 474 kts 33°
2026-04-17 12:23 34.23941 -10.49078 36058 ft 475 kts 32°
2026-04-17 12:24 34.29294 -10.44399 36062 ft 475 kts 33°
2026-04-17 12:24 34.34640 -10.39718 36066 ft 475 kts 33°
2026-04-17 12:25 34.39979 -10.35044 36058 ft 475 kts 33°
2026-04-17 12:25 34.45302 -10.30372 36063 ft 475 kts 33°
2026-04-17 12:26 34.50647 -10.25672 36064 ft 475 kts 33°
2026-04-17 12:26 34.55988 -10.20969 36067 ft 475 kts 33°
2026-04-17 12:27 34.61328 -10.16259 36060 ft 475 kts 33°
2026-04-17 12:27 34.66688 -10.11548 36069 ft 475 kts 33°
2026-04-17 12:28 34.72041 -10.06842 36060 ft 475 kts 33°
2026-04-17 12:28 34.77399 -10.02123 36068 ft 475 kts 33°
2026-04-17 12:29 34.82757 -9.97401 36073 ft 475 kts 33°
2026-04-17 12:29 34.88090 -9.92681 36069 ft 475 kts 33°
2026-04-17 12:30 34.93438 -9.87947 36071 ft 475 kts 33°
2026-04-17 12:30 34.98789 -9.83211 36072 ft 475 kts 33°
2026-04-17 12:31 35.04131 -9.78461 36073 ft 475 kts 34°
2026-04-17 12:31 35.09433 -9.73743 36072 ft 475 kts 34°
2026-04-17 12:32 35.14754 -9.69005 36073 ft 475 kts 34°
2026-04-17 12:32 35.20006 -9.64318 36073 ft 475 kts 34°
2026-04-17 12:33 35.25377 -9.59520 36073 ft 475 kts 34°
2026-04-17 12:33 35.30718 -9.54735 36073 ft 475 kts 34°
2026-04-17 12:34 35.36038 -9.49963 36072 ft 475 kts 34°
2026-04-17 12:34 35.41336 -9.45205 36073 ft 475 kts 34°
2026-04-17 12:35 35.46697 -9.40380 36073 ft 475 kts 34°
2026-04-17 12:35 35.52022 -9.35577 36081 ft 475 kts 34°
2026-04-17 12:37 35.73260 -9.16357 36089 ft 475 kts 34°
2026-04-17 12:38 35.78565 -9.11532 36091 ft 475 kts 34°
2026-04-17 12:38 35.83864 -9.06707 36091 ft 475 kts 34°
2026-04-17 12:39 35.89172 -9.01865 36091 ft 475 kts 35°
2026-04-17 12:39 35.94506 -8.96991 36093 ft 475 kts 35°
2026-04-17 12:40 35.99331 -8.91458 36092 ft 477 kts 46°
2026-04-17 12:40 36.03557 -8.85235 36093 ft 477 kts 50°
2026-04-17 12:41 36.07811 -8.78937 36096 ft 477 kts 48°
2026-04-17 12:41 36.12132 -8.72748 36100 ft 477 kts 49°
2026-04-17 12:42 36.16441 -8.66527 36101 ft 477 kts 49°
2026-04-17 12:42 36.20747 -8.60319 36100 ft 477 kts 49°
2026-04-17 12:43 36.25056 -8.54078 36101 ft 477 kts 49°
2026-04-17 12:43 36.29293 -8.47952 36101 ft 477 kts 49°
2026-04-17 12:44 36.33588 -8.41699 36099 ft 476 kts 49°
2026-04-17 12:44 36.37911 -8.35415 36100 ft 476 kts 49°
2026-04-17 12:45 36.42211 -8.29172 36099 ft 476 kts 48°
2026-04-17 12:45 36.46509 -8.22989 36100 ft 476 kts 48°
2026-04-17 12:46 36.50747 -8.16812 36100 ft 476 kts 49°
2026-04-17 12:46 36.55055 -8.10498 36100 ft 475 kts 49°
2026-04-17 12:47 36.59316 -8.04244 36099 ft 475 kts 49°
2026-04-17 12:47 36.63591 -7.97961 36100 ft 475 kts 49°
2026-04-17 12:48 36.67826 -7.91717 36101 ft 475 kts 49°
2026-04-17 12:48 36.72067 -7.85442 36101 ft 475 kts 49°
2026-04-17 12:49 36.76325 -7.79148 36100 ft 475 kts 50°
2026-04-17 12:49 36.80589 -7.72830 36100 ft 475 kts 50°
2026-04-17 12:50 36.84839 -7.66525 36100 ft 475 kts 50°
2026-04-17 12:50 36.89062 -7.60240 36100 ft 475 kts 50°
2026-04-17 12:51 36.93284 -7.53942 36100 ft 475 kts 50°
2026-04-17 12:51 36.97539 -7.47582 36100 ft 475 kts 50°
2026-04-17 12:52 37.01787 -7.41242 36094 ft 475 kts 50°
2026-04-17 12:52 37.06258 -7.35186 36097 ft 475 kts 41°
2026-04-17 12:53 37.11293 -7.29936 36102 ft 475 kts 39°
2026-04-17 12:53 37.16299 -7.24565 36101 ft 475 kts 42°
2026-04-17 12:54 37.21053 -7.19272 36102 ft 475 kts 41°
2026-04-17 12:54 37.24935 -7.15004 36107 ft 476 kts 41°
2026-04-17 12:55 37.29635 -7.09807 36101 ft 476 kts 41°
2026-04-17 12:55 37.34598 -7.04301 36097 ft 477 kts 41°
2026-04-17 12:56 37.39454 -6.98911 36092 ft 477 kts 41°
2026-04-17 12:56 37.44300 -6.93524 36096 ft 477 kts 42°
2026-04-17 12:57 37.48948 -6.88355 36100 ft 477 kts 41°
2026-04-17 12:57 37.53923 -6.82810 36099 ft 478 kts 42°
2026-04-17 12:58 37.58900 -6.77244 36104 ft 478 kts 42°
2026-04-17 12:58 37.63878 -6.71669 36098 ft 479 kts 42°
2026-04-17 12:59 37.68824 -6.66118 36096 ft 479 kts 42°
2026-04-17 12:59 37.73802 -6.60529 36096 ft 479 kts 42°
2026-04-17 13:00 37.78778 -6.54925 36094 ft 479 kts 42°
2026-04-17 13:00 37.83762 -6.49303 36095 ft 480 kts 42°
2026-04-17 13:01 37.88735 -6.43680 36090 ft 480 kts 43°
2026-04-17 13:01 37.93709 -6.38048 36096 ft 480 kts 43°
2026-04-17 13:02 37.98636 -6.32453 36091 ft 480 kts 43°
2026-04-17 13:02 38.03625 -6.26788 36089 ft 480 kts 43°
2026-04-17 13:03 38.08595 -6.21123 36091 ft 481 kts 43°
2026-04-17 13:03 38.13477 -6.15558 36089 ft 481 kts 43°
2026-04-17 13:04 38.18499 -6.09816 36094 ft 481 kts 43°
2026-04-17 13:04 38.23475 -6.04113 36096 ft 481 kts 43°
2026-04-17 13:05 38.28445 -5.98410 36090 ft 481 kts 43°
2026-04-17 13:05 38.33416 -5.92698 36089 ft 481 kts 43°
2026-04-17 13:06 38.38371 -5.86994 36092 ft 480 kts 43°
2026-04-17 13:06 38.43297 -5.81303 36100 ft 481 kts 43°
2026-04-17 13:07 38.48253 -5.75571 36100 ft 481 kts 43°
2026-04-17 13:07 38.53174 -5.69865 36101 ft 481 kts 43°
2026-04-17 13:08 38.58129 -5.64117 36100 ft 481 kts 43°
2026-04-17 13:08 38.62250 -5.59321 36100 ft 481 kts 43°
2026-04-17 13:09 38.67200 -5.53560 36098 ft 481 kts 43°
2026-04-17 13:09 38.72148 -5.47781 36099 ft 482 kts 43°
2026-04-17 13:10 38.77893 -5.41059 36100 ft 482 kts 43°
2026-04-17 13:10 38.82001 -5.36246 36104 ft 482 kts 43°
2026-04-17 13:11 38.86945 -5.30444 36107 ft 482 kts 43°
2026-04-17 13:11 38.91858 -5.24666 36116 ft 482 kts 43°
2026-04-17 13:12 38.96795 -5.18845 36127 ft 482 kts 43°
2026-04-17 13:12 39.01187 -5.12386 36126 ft 480 kts 54°
2026-04-17 13:12 39.03102 -5.08857 36132 ft 480 kts 58°
2026-04-17 13:13 39.06530 -5.01507 36129 ft 479 kts 61°
2026-04-17 13:13 39.09947 -4.94214 36144 ft 479 kts 59°
2026-04-17 13:14 39.13462 -4.86895 36146 ft 480 kts 59°
2026-04-17 13:14 39.16965 -4.79571 36131 ft 480 kts 59°
2026-04-17 13:15 39.20877 -4.72602 36149 ft 481 kts 49°
2026-04-17 13:15 39.25590 -4.66471 36155 ft 481 kts 44°
2026-04-17 13:16 39.28023 -4.63481 36035 ft 483 kts 44°
2026-04-17 13:16 39.30421 -4.60442 35726 ft 483 kts 45°
2026-04-17 13:16 39.32784 -4.57357 35361 ft 484 kts 45°
2026-04-17 13:16 39.35159 -4.54267 34984 ft 485 kts 45°
2026-04-17 13:17 39.37546 -4.51173 34546 ft 486 kts 45°
2026-04-17 13:17 39.39922 -4.48079 34021 ft 484 kts 45°
2026-04-17 13:17 39.42296 -4.44993 33342 ft 484 kts 45°
2026-04-17 13:17 39.44651 -4.41921 32578 ft 476 kts 45°
2026-04-17 13:18 39.46884 -4.39011 31635 ft 471 kts 45°
2026-04-17 13:18 39.49247 -4.35933 30606 ft 466 kts 45°
2026-04-17 13:18 39.51516 -4.32958 29629 ft 463 kts 45°
2026-04-17 13:18 39.53768 -4.29997 28634 ft 459 kts 45°
2026-04-17 13:19 39.56008 -4.27071 27649 ft 455 kts 45°
2026-04-17 13:19 39.58223 -4.24171 26651 ft 451 kts 45°
2026-04-17 13:19 39.60424 -4.21286 25653 ft 443 kts 45°
2026-04-17 13:19 39.62550 -4.18485 24622 ft 429 kts 45°
2026-04-17 13:20 39.64626 -4.15761 23492 ft 419 kts 45°
2026-04-17 13:20 39.66652 -4.13106 22363 ft 410 kts 45°
2026-04-17 13:20 39.68638 -4.10486 21235 ft 402 kts 45°
2026-04-17 13:20 39.70572 -4.07919 20098 ft 395 kts 45°
2026-04-17 13:21 39.72460 -4.05432 19007 ft 388 kts 45°
2026-04-17 13:21 39.74338 -4.02958 17892 ft 382 kts 45°
2026-04-17 13:21 39.76188 -4.00519 16769 ft 376 kts 45°
2026-04-17 13:21 39.78030 -3.98084 16008 ft 362 kts 45°
2026-04-17 13:22 39.79691 -3.95893 15852 ft 335 kts 45°
2026-04-17 13:22 39.81329 -3.93734 15003 ft 334 kts 45°
2026-04-17 13:22 39.82938 -3.91585 14635 ft 318 kts 45°
2026-04-17 13:22 39.84445 -3.89579 14190 ft 313 kts 45°
2026-04-17 13:23 39.85969 -3.87560 13764 ft 312 kts 45°
2026-04-17 13:23 39.87505 -3.85515 13334 ft 311 kts 45°
2026-04-17 13:23 39.88998 -3.83534 12639 ft 319 kts 45°
2026-04-17 13:23 39.90250 -3.81877 12044 ft 325 kts 45°
2026-04-17 13:24 39.91858 -3.79743 11300 ft 330 kts 45°
2026-04-17 13:24 39.93471 -3.77589 10642 ft 331 kts 46°
2026-04-17 13:24 39.95056 -3.75463 10039 ft 321 kts 46°
2026-04-17 13:24 39.96591 -3.73420 9498 ft 310 kts 46°
2026-04-17 13:25 39.98073 -3.71444 8990 ft 300 kts 46°
2026-04-17 13:25 39.99521 -3.69503 8495 ft 300 kts 46°
2026-04-17 13:25 40.00661 -3.67977 8107 ft 300 kts 46°
2026-04-17 13:25 40.02116 -3.66034 7626 ft 299 kts 46°
2026-04-17 13:26 40.03545 -3.64116 7343 ft 289 kts 46°
2026-04-17 13:26 40.04939 -3.62255 7062 ft 282 kts 46°
2026-04-17 13:26 40.06311 -3.60409 6848 ft 285 kts 46°
2026-04-17 13:26 40.07671 -3.58581 6695 ft 283 kts 46°
2026-04-17 13:27 40.09044 -3.56749 6554 ft 282 kts 46°
2026-04-17 13:27 40.10409 -3.54920 6408 ft 280 kts 46°
2026-04-17 13:27 40.11767 -3.53099 6287 ft 278 kts 46°
2026-04-17 13:27 40.13111 -3.51296 6189 ft 277 kts 46°
2026-04-17 13:28 40.14450 -3.49493 6090 ft 275 kts 46°
2026-04-17 13:28 40.15776 -3.47719 6032 ft 268 kts 46°
2026-04-17 13:28 40.17045 -3.46024 5993 ft 258 kts 45°
2026-04-17 13:28 40.18334 -3.44366 5981 ft 259 kts 43°
2026-04-17 13:29 40.19670 -3.42770 5771 ft 258 kts 41°
2026-04-17 13:29 40.21019 -3.41246 5458 ft 255 kts 37°
2026-04-17 13:29 40.22513 -3.40006 5057 ft 254 kts 28°
2026-04-17 13:29 40.24093 -3.38949 4661 ft 255 kts 26°
2026-04-17 13:30 40.25769 -3.38243 4266 ft 253 kts
2026-04-17 13:30 40.27482 -3.38410 4114 ft 241 kts 351°
2026-04-17 13:30 40.29099 -3.38751 4039 ft 230 kts 349°
2026-04-17 13:30 40.30579 -3.39262 3972 ft 219 kts 330°
2026-04-17 13:31 40.31798 -3.40415 3979 ft 214 kts 319°
2026-04-17 13:31 40.32940 -3.41638 3989 ft 208 kts 319°
2026-04-17 13:31 40.34068 -3.42842 4019 ft 216 kts 319°
2026-04-17 13:31 40.35268 -3.44107 4161 ft 213 kts 320°
2026-04-17 13:32 40.36315 -3.45186 4201 ft 177 kts 320°
2026-04-17 13:32 40.37263 -3.46171 4081 ft 173 kts 321°
2026-04-17 13:32 40.38204 -3.47141 4027 ft 169 kts 321°
2026-04-17 13:32 40.39142 -3.48093 3785 ft 172 kts 321°
2026-04-17 13:33 40.40011 -3.48980 3558 ft 143 kts 321°
2026-04-17 13:33 40.40782 -3.49764 3350 ft 144 kts 321°
2026-04-17 13:33 40.41575 -3.50574 3149 ft 137 kts 321°
2026-04-17 13:33 40.42305 -3.51284 2904 ft 134 kts 320°
2026-04-17 13:34 40.43072 -3.52071 2821 ft 149 kts 321°
2026-04-17 13:34 40.43871 -3.52885 2640 ft 143 kts 320°
2026-04-17 13:34 40.44661 -3.53697 2356 ft 142 kts 319°
2026-04-17 13:34 40.45459 -3.54518 2157 ft 144 kts 321°
2026-04-17 13:35 40.46231 -3.55304 1998 ft 142 kts 320°
2026-04-17 13:35 40.46953 -3.56044 1974 ft 112 kts 323°
2026-04-17 13:35 40.47408 -3.56503 1990 ft 43 kts 322°
2026-04-17 13:35 40.47529 -3.56720 1992 ft 28 kts 293°
2026-04-17 13:36 40.47557 -3.56798 1992 ft 11 kts 295°
2026-04-17 13:36 40.47607 -3.56930 1992 ft 1 kts 299°
2026-04-17 13:37 40.47610 -3.56937 1992 ft 0 kts 299°
2026-04-17 13:37 40.47611 -3.56940 1992 ft 0 kts 299°
2026-04-17 13:38 40.47612 -3.56943 1992 ft 1 kts 299°
2026-04-17 13:38 40.47616 -3.56951 1992 ft 0 kts 298°
2026-04-17 13:38 40.47630 -3.56988 1994 ft 11 kts 298°
2026-04-17 13:38 40.47623 -3.57089 1994 ft 12 kts 235°
2026-04-17 13:39 40.47585 -3.57152 1994 ft 0 kts 201°
2026-04-17 13:39 40.47579 -3.57151 1993 ft 1 kts 176°
2026-04-17 13:39 40.47585 -3.57153 1994 ft 1 kts 141°
2026-04-17 13:39 40.47587 -3.57155 1995 ft 2 kts 116°
2026-04-17 13:40 40.47596 -3.57114 1994 ft 6 kts 71°
2026-04-17 13:40 40.47582 -3.57074 1993 ft 7 kts 135°
2026-04-17 13:40 40.47367 -3.56825 1989 ft 31 kts 139°
2026-04-17 13:40 40.47276 -3.56754 1985 ft 8 kts 145°
2026-04-17 13:41 40.47241 -3.56722 1984 ft 3 kts 155°
2026-04-17 13:41 40.47226 -3.56727 1984 ft 4 kts 212°
2026-04-17 13:41 40.47205 -3.56759 1983 ft 5 kts 232°
2026-04-17 13:41 40.47192 -3.56782 1985 ft 0 kts 232°